Moffett NAS, CA

10:53 PM PDT on April 23, 2017 (GMT -0700)
Moffett Federal Air Field

Weather History for KNUQ - September, 2007

Change the Weather History Date:

Wednesday, September 19, 2007

  Actual Average Record
Temperature  
Mean Temperature 60 °F 68 °F  
Max Temperature 66 °F 77 °F 96 °F (2000)
Min Temperature 55 °F 58 °F 46 °F (1947)
Degree Days  
Heating Degree Days 6    
Month to date heating degree days  
Since 1 July heating degree days  
Cooling Degree Days 0    
Month to date cooling degree days  
Year to date cooling degree days  
Growing Degree Days 10 (Base 50)    
Moisture  
Dew Point 46 °F    
Average Humidity 61    
Maximum Humidity 72    
Minimum Humidity 48    
Precipitation  
Precipitation 0.00 in 0.00 in 0.47 in (1977)
Month to date precipitation 0.08  
Year to date precipitation 9.74  
Sea Level Pressure  
Sea Level Pressure 29.90 in    
Wind  
Wind Speed 8 mph (WSW)    
Max Wind Speed 20 mph    
Max Gust Speed 30 mph    
Visibility 10 miles    
Events      
T = Trace of Precipitation, MM = Missing Value Source: NWS Daily Summary

Daily Weather History Graph

Daily Weather History Graph

Search for Another Location

Airport or City:

Trip Planner

Search our weather history database for the weather conditions in past years. The results will help you decide how hot, cold, wet, or windy it might be!

Date:

Astronomy

Sep. 19, 2007 Rise Set
Actual Time 6:53 AM PDT 7:10 PM PDT
Civil Twilight 6:27 AM PDT 7:36 PM PDT
Nautical Twilight 5:56 AM PDT 8:06 PM PDT
Astronomical Twilight 5:25 AM PDT 8:37 PM PDT
Moon 2:48 PM PDT (9/19) 11:52 PM PDT (9/19)
Length of Visible Light 13h 08m
Length of Day
12h 16m
Waxing Crescent, 51% of the Moon is Illuminated
Sep 19
Waxing Crescent
Sep 26
Full
Oct 3
Last Quarter
Oct 10
New
Oct 19
First Quarter

Hourly Weather History & Observations

Time (PDT) Temp. Dew Point Humidity Pressure Visibility Wind Dir Wind Speed Gust Speed Precip Events Conditions
12:56 AM 57.9 °F 46.9 °F 67% 29.94 in 10.0 mi WSW 4.6 mph - N/A   Clear
1:56 AM 57.9 °F 46.9 °F 67% 29.94 in 10.0 mi SW 11.5 mph - N/A   Clear
2:56 AM 57.9 °F 46.9 °F 67% 29.93 in 10.0 mi SSW 6.9 mph - N/A   Clear
3:56 AM 57.0 °F 46.9 °F 69% 29.93 in 10.0 mi WSW 5.8 mph - N/A   Clear
4:56 AM 55.9 °F 46.9 °F 72% 29.93 in 10.0 mi Calm Calm - N/A   Clear
5:20 AM 57.2 °F 46.4 °F 67% 29.92 in 10.0 mi Variable 3.5 mph - N/A   Mostly Cloudy
5:56 AM 57.9 °F 46.9 °F 67% 29.92 in 10.0 mi West 6.9 mph - N/A   Overcast
6:56 AM 57.9 °F 48.0 °F 70% 29.91 in 10.0 mi Variable 4.6 mph - N/A   Overcast
7:56 AM 57.9 °F 46.9 °F 67% 29.92 in 10.0 mi West 8.1 mph - N/A   Overcast
8:56 AM 59.0 °F 46.9 °F 64% 29.93 in 10.0 mi Variable 4.6 mph - N/A   Mostly Cloudy
9:03 AM 59.0 °F 46.4 °F 63% 29.92 in 10.0 mi SW 5.8 mph - N/A   Scattered Clouds
9:56 AM 61.0 °F 46.0 °F 58% 29.93 in 6.0 mi West 10.4 mph 21.9 mph N/A   Haze
10:56 AM 63.0 °F 46.0 °F 54% 29.92 in 10.0 mi WSW 19.6 mph 25.3 mph N/A   Clear
11:56 AM 64.0 °F 45.0 °F 50% 29.91 in 10.0 mi West 18.4 mph 27.6 mph N/A   Scattered Clouds
12:56 PM 64.9 °F 45.0 °F 48% 29.91 in 10.0 mi West 12.7 mph 26.5 mph 0.00 in   Partly Cloudy
1:56 PM 64.9 °F 46.0 °F 50% 29.89 in 10.0 mi WNW 18.4 mph 28.8 mph 0.00 in   Scattered Clouds
2:56 PM 64.9 °F 45.0 °F 48% 29.88 in 10.0 mi West 16.1 mph 29.9 mph 0.00 in   Scattered Clouds
3:56 PM 64.0 °F 45.0 °F 50% 29.88 in 10.0 mi West 16.1 mph 27.6 mph N/A   Scattered Clouds
4:56 PM 62.1 °F 43.0 °F 50% 29.87 in 10.0 mi West 19.6 mph 27.6 mph N/A   Clear
5:56 PM 61.0 °F 44.1 °F 54% 29.88 in 10.0 mi West 10.4 mph 21.9 mph N/A   Clear
6:56 PM 59.0 °F 45.0 °F 60% 29.88 in 10.0 mi WSW 9.2 mph - N/A   Scattered Clouds
7:56 PM 59.0 °F 45.0 °F 60% 29.88 in 10.0 mi WNW 5.8 mph - N/A   Mostly Cloudy
8:47 PM 57.2 °F 46.4 °F 67% 29.88 in 10.0 mi West 4.6 mph - N/A   Overcast
8:56 PM 59.0 °F 46.0 °F 62% 29.89 in 10.0 mi WSW 8.1 mph - N/A   Mostly Cloudy
9:56 PM 57.9 °F 45.0 °F 62% 29.88 in 10.0 mi SSW 4.6 mph - N/A   Overcast
10:56 PM 57.9 °F 45.0 °F 62% 29.88 in 10.0 mi SW 5.8 mph - N/A   Mostly Cloudy
11:56 PM 55.9 °F 44.1 °F 64% 29.87 in 10.0 mi Calm Calm - N/A   Clear